Weather History for CYBK - March, 2013

Change the Weather History Date:

Sunday, March 24, 2013

  Actual Average Record
Temperature  
Mean Temperature 4 °F -  
Max Temperature 8 °F 4 °F 77 °F (2015)
Min Temperature 0 °F -12 °F -34 °F (1998)
Degree Days  
Heating Degree Days 61    
Moisture  
Dew Point 4 °F    
Average Humidity 86    
Maximum Humidity 100    
Minimum Humidity 16    
Precipitation  
Precipitation 0.00 in 0.02 in - ()
Sea Level Pressure  
Sea Level Pressure 30.71 in    
Wind  
Wind Speed 5 mph ()    
Max Wind Speed 10 mph    
Max Gust Speed -    
Visibility 17.3 miles    
Events      
Averages and records for this station are not official NWS values.
T = Trace of Precipitation, MM = Missing Value Source: Averaged Metar Reports

Daily Weather History Graph

Daily Weather History Graph

Search for Another Location

Airport or City:

Trip Planner

Search our weather history database for the weather conditions in past years. The results will help you decide how hot, cold, wet, or windy it might be!

Date:

Astronomy

Mar. 24, 2013 Rise Set
Actual Time 7:09 AM CDT 7:53 PM CDT
Civil Twilight 6:21 AM CDT 8:41 PM CDT
Nautical Twilight 5:20 AM CDT 9:42 PM CDT
Astronomical Twilight 4:09 AM CDT 10:55 PM CDT
Moon 4:40 PM CDT (3/24) 6:10 AM CDT (3/24)
Length of Visible Light 14h 20m
Length of Day
12h 43m
Waxing Gibbous, 92% of the Moon is Illuminated
Mar 24
Waxing Gibbous
Mar 27
Full
Apr 2
Last Quarter
Apr 10
New
Apr 18
First Quarter

Hourly Weather History & Observations

Time (CDT) Temp. Windchill Dew Point Humidity Pressure Visibility Wind Dir Wind Speed Gust Speed Precip Events Conditions
12:00 AM 14.0 °F 2.9 °F 10.4 °F 86% 30.69 in 15.0 mi East 8.1 mph - N/A   Overcast
1:00 AM 13 °F - 10 °F 83% 30.69 in 15 mi East 8.1 mph - -   Partly Cloudy
1:00 AM 12.2 °F 1.7 °F 10.4 °F 92% 30.69 in 15.0 mi East 6.9 mph - N/A   Overcast
2:00 AM 12.2 °F 0.7 °F 10.4 °F 92% 30.69 in 15.0 mi East 8.1 mph - N/A   Overcast
3:00 AM 53.6 °F - 8.6 °F 16% 30.70 in 15.0 mi East 6.9 mph - N/A   Overcast
4:00 AM 8.6 °F 2.0 °F 5.0 °F 85% 30.70 in 15.0 mi East 3.5 mph - N/A   Mostly Cloudy
5:00 AM 6.8 °F -3.5 °F 3.2 °F 85% 30.70 in 15.0 mi East 5.8 mph - N/A   Scattered Clouds
6:00 AM 5.0 °F -6.9 °F 3.2 °F 92% 30.70 in 15.0 mi East 6.9 mph - N/A   Scattered Clouds
7:00 AM 5 °F - 3 °F 86% 30.71 in 15 mi East 9.2 mph - -   Scattered Clouds
7:00 AM 5.0 °F -8.1 °F 3.2 °F 92% 30.71 in 15.0 mi East 8.1 mph - N/A   Scattered Clouds
8:00 AM 5.0 °F -4.1 °F 1.4 °F 85% 30.71 in 15.0 mi ESE 4.6 mph - N/A   Mostly Cloudy
9:00 AM 3.2 °F - 1.4 °F 92% 30.72 in 20.0 mi Calm Calm - N/A   Mostly Cloudy
10:00 AM 5.0 °F -2.1 °F 1.4 °F 85% 30.73 in 20.0 mi East 3.5 mph - N/A   Mostly Cloudy
11:00 AM 6.8 °F -0.1 °F 3.2 °F 85% 30.73 in 20.0 mi ESE 3.5 mph - N/A   Mostly Cloudy
12:00 PM 6.8 °F -6.9 °F 3.2 °F 85% 30.73 in 20.0 mi ESE 9.2 mph - N/A   Scattered Clouds
1:00 PM 6 °F - 3 °F 83% 30.73 in 19 mi ESE 9.2 mph - -   Scattered Clouds
1:00 PM 6.8 °F -7.8 °F 3.2 °F 85% 30.73 in 20.0 mi ESE 10.4 mph - N/A   Partly Cloudy
3:00 PM 6.8 °F -7.8 °F 5.0 °F 92% 30.72 in 20.0 mi ESE 10.4 mph - N/A   Mostly Cloudy
3:09 PM - - - N/A% - 20.0 mi ESE 10.4 mph - N/A   Mostly Cloudy
4:00 PM 6.8 °F -6.9 °F 5.0 °F 92% 30.72 in 20.0 mi ESE 9.2 mph - N/A   Mostly Cloudy
5:00 PM 6.8 °F -0.1 °F 5.0 °F 92% 30.71 in 20.0 mi ESE 3.5 mph - N/A   Mostly Cloudy
6:00 PM 6.8 °F - 5.0 °F 92% 30.71 in 20.0 mi Calm Calm - N/A   Scattered Clouds
7:00 PM 5 °F - 2 °F 84% 30.72 in 19 mi Calm Calm - -   Scattered Clouds
7:00 PM 5.0 °F - 3.2 °F 92% 30.72 in 20.0 mi Calm Calm - N/A   Partly Cloudy
8:00 PM -0.4 °F - -0.4 °F 100% 30.72 in 20.0 mi Calm Calm - N/A   Scattered Clouds
9:00 PM 3.2 °F - -0.4 °F 85% 30.72 in 15.0 mi Calm Calm - N/A   Partly Cloudy
10:00 PM 3.2 °F - 1.4 °F 92% 30.72 in 15.0 mi Calm Calm - N/A   Mostly Cloudy
10:14 PM - - - N/A% - 15.0 mi Calm Calm - N/A   Mostly Cloudy
11:00 PM 5.0 °F - 3.2 °F 92% 30.72 in 15.0 mi Calm Calm - N/A   Mostly Cloudy